Location: Northcutt
(34.7304°N, 84.4305°W)
Time: 08:49:19
(UTC+00:00)

S-56A Canister/Altair - Pass Details

Date: 05 October 2022
Orbit: 638 x 2494 km, 38.9° (Epoch: 08 December)

Event Time Altitude Azimuth Distance (km) Brightness Sun altitude
Rises 06:00:30 0° 244° (WSW) 6,075 - -59.0°
Reaches altitude 10° 06:04:42 10° 244° (WSW) 4,942 - -58.7°
Maximum altitude 06:18:25 85° 158° (SSE) 1,859 - -57.7°
Drops below altitude 10° 06:27:43 10° 71° (ENE) 3,481 - -56.8°
Exits shadow 06:27:47 10° 71° (ENE) 3,501 11.1 -56.8°
Sets 06:30:11 0° 71° (ENE) 4,241 11.7 -56.6°
